FHCMC LFPU-LFPT

Flight info

Callsign FHCMC
Flight time N/A
Altitude 2000
Route LFPT/04
Aircraft DA40

Departure

Time N/A
Airport Moret-Episy Airfield (LFPU)

Arrival

Time 2026-04-30 19:37
Airport Pontoise-Cormeilles Aerodrome (LFPT)
Time Latitude Longitude Altitude Speed Heading
2026-04-30 19:32 49.09023 2.05686 1052 ft 79 kts 70°
2026-04-30 19:32 49.09561 2.06045 1173 ft 97 kts 20°
2026-04-30 19:32 49.10245 2.06234 1197 ft 108 kts 14°
2026-04-30 19:33 49.10985 2.05875 1176 ft 127 kts 318°
2026-04-30 19:33 49.11496 2.04772 1209 ft 127 kts 302°
2026-04-30 19:33 49.11913 2.03623 1076 ft 119 kts 303°
2026-04-30 19:33 49.12293 2.02570 960 ft 107 kts 297°
2026-04-30 19:34 49.12596 2.01556 979 ft 106 kts 296°
2026-04-30 19:34 49.12871 2.00507 1029 ft 105 kts 293°
2026-04-30 19:34 49.12625 1.98496 951 ft 101 kts 206°
2026-04-30 19:35 49.12003 1.98255 872 ft 87 kts 166°
2026-04-30 19:35 49.11535 1.98761 851 ft 86 kts 118°
2026-04-30 19:35 49.11254 1.99538 769 ft 84 kts 115°
2026-04-30 19:35 49.10982 2.00293 638 ft 80 kts 116°
2026-04-30 19:36 49.10740 2.01005 572 ft 67 kts 117°
2026-04-30 19:36 49.10530 2.01576 502 ft 59 kts 114°
2026-04-30 19:36 49.10131 2.02741 344 ft 61 kts 115°
2026-04-30 19:37 49.09966 2.03217 328 ft 39 kts 117°
2026-04-30 19:37 49.09774 2.03757 378 ft 71 kts 114°
2026-04-30 19:37 49.09550 2.04431 625 ft 74 kts 112°
2026-04-30 19:37 49.09285 2.05147 890 ft 77 kts 116°
2026-04-30 19:38 49.09013 2.05849 1162 ft 74 kts 115°
2026-04-30 19:38 49.08692 2.06412 1450 ft 70 kts 144°
2026-04-30 19:38 49.08181 2.06406 1684 ft 85 kts 188°
2026-04-30 19:38 49.07699 2.05804 1943 ft 93 kts 210°
2026-04-30 19:39 49.07200 2.05024 1999 ft 113 kts 211°
2026-04-30 19:39 49.06584 2.04155 1998 ft 128 kts 211°
2026-04-30 19:39 49.05887 2.03223 1992 ft 137 kts 212°
2026-04-30 19:39 49.05170 2.02256 1992 ft 139 kts 212°
2026-04-30 19:40 49.04437 2.01291 1994 ft 140 kts 211°
2026-04-30 19:40 49.03695 2.00308 2000 ft 142 kts 212°
2026-04-30 19:40 49.02951 1.99316 1998 ft 141 kts 212°
2026-04-30 19:40 49.02225 1.98331 1994 ft 139 kts 212°
2026-04-30 19:41 49.01509 1.97346 1994 ft 137 kts 209°
2026-04-30 19:41 49.00684 1.96835 1991 ft 125 kts 183°
2026-04-30 19:41 48.99841 1.96547 1993 ft 125 kts 181°
2026-04-30 19:41 48.99004 1.96253 1989 ft 123 kts 182°
2026-04-30 19:42 48.98180 1.95974 1991 ft 117 kts 182°
2026-04-30 19:42 48.97410 1.95714 1988 ft 113 kts 182°
2026-04-30 19:42 48.96655 1.95453 1995 ft 110 kts 181°
2026-04-30 19:42 48.95907 1.95184 1990 ft 113 kts 187°
2026-04-30 19:43 48.95267 1.94382 1998 ft 130 kts 229°
2026-04-30 19:43 48.95060 1.93142 1994 ft 141 kts 267°
2026-04-30 19:43 48.95129 1.91655 1999 ft 141 kts 272°
2026-04-30 19:44 48.95326 1.88690 2001 ft 141 kts 272°
2026-04-30 19:44 48.95426 1.87201 2001 ft 141 kts 272°
2026-04-30 19:44 48.95527 1.85714 1996 ft 142 kts 272°
2026-04-30 19:44 48.95625 1.84225 1993 ft 141 kts 272°
2026-04-30 19:45 48.95727 1.82756 1999 ft 140 kts 273°
2026-04-30 19:45 48.95847 1.81281 1989 ft 141 kts 286°
2026-04-30 19:45 48.96384 1.80099 1991 ft 134 kts 331°
2026-04-30 19:45 48.97212 1.79727 1994 ft 119 kts 16°
2026-04-30 19:46 48.97888 1.80223 2001 ft 104 kts 56°
2026-04-30 19:46 48.98369 1.81033 2001 ft 101 kts 65°
2026-04-30 19:46 48.98718 1.81941 2001 ft 99 kts 71°
2026-04-30 19:46 48.99043 1.82873 2001 ft 100 kts 72°
2026-04-30 19:47 48.99300 1.83835 2008 ft 95 kts 81°
2026-04-30 19:47 48.99417 1.84460 2009 ft 89 kts 81°
2026-04-30 19:47 48.99618 1.85580 2002 ft 77 kts 82°
2026-04-30 19:47 48.99768 1.86349 2006 ft 76 kts 81°
2026-04-30 19:48 48.99919 1.87126 2006 ft 77 kts 82°
2026-04-30 19:48 48.99998 1.87919 1998 ft 75 kts 93°
2026-04-30 19:48 49.00008 1.88682 1988 ft 69 kts 90°
2026-04-30 19:48 49.00123 1.89387 1982 ft 73 kts 68°
2026-04-30 19:49 49.00450 1.89987 1989 ft 74 kts 63°
2026-04-30 19:49 49.01092 1.91045 1990 ft 60 kts 62°
2026-04-30 19:49 49.01408 1.91549 1998 ft 71 kts 58°
2026-04-30 19:50 49.01779 1.92133 2007 ft 83 kts 58°
2026-04-30 19:50 49.02199 1.92787 1998 ft 85 kts 58°
2026-04-30 19:50 49.02591 1.93382 1990 ft 72 kts 56°
2026-04-30 19:50 49.02918 1.93872 1981 ft 64 kts 57°
2026-04-30 19:51 49.03230 1.94344 1983 ft 64 kts 59°
2026-04-30 19:51 49.03557 1.94839 1987 ft 68 kts 59°
2026-04-30 19:51 49.03898 1.95355 1995 ft 71 kts 60°
2026-04-30 19:51 49.04252 1.95891 1998 ft 73 kts 59°
2026-04-30 19:52 49.04605 1.96408 1910 ft 64 kts 61°
2026-04-30 19:52 49.04905 1.96864 1796 ft 58 kts 62°
2026-04-30 19:52 49.05186 1.97297 1731 ft 56 kts 61°
2026-04-30 19:52 49.05472 1.97734 1630 ft 62 kts 61°
2026-04-30 19:53 49.05771 1.98235 1474 ft 67 kts 60°
2026-04-30 19:53 49.06076 1.98784 1334 ft 70 kts 63°
2026-04-30 19:53 49.06474 1.99288 1206 ft 75 kts 47°
2026-04-30 19:53 49.06853 1.99816 1038 ft 73 kts 52°
2026-04-30 19:54 49.07207 2.00367 914 ft 74 kts 51°
2026-04-30 19:54 49.07577 2.00922 828 ft 74 kts 52°
2026-04-30 19:54 49.07949 2.01499 619 ft 84 kts 46°
2026-04-30 19:54 49.08356 2.02099 525 ft 80 kts 53°
2026-04-30 19:55 49.08743 2.02682 371 ft 73 kts 52°
2026-04-30 19:55 49.09066 2.03171 326 ft 55 kts 46°
2026-04-30 19:55 49.09298 2.03521 328 ft 40 kts 46°
2026-04-30 19:55 49.09466 2.03780 327 ft 30 kts 47°
2026-04-30 19:56 49.09598 2.03974 326 ft 23 kts 44°
2026-04-30 19:56 49.09705 2.04134 326 ft 14 kts 46°
2026-04-30 19:56 49.09736 2.04157 324 ft 5 kts 316°
2026-04-30 19:56 49.09760 2.04093 326 ft 9 kts 298°
2026-04-30 19:57 49.09787 2.04014 326 ft 8 kts 296°
2026-04-30 19:57 49.09815 2.03933 326 ft 8 kts 294°
2026-04-30 19:57 49.09846 2.03845 326 ft 12 kts 295°
2026-04-30 19:57 49.09880 2.03750 325 ft 9 kts 298°
2026-04-30 19:58 49.09915 2.03648 326 ft 14 kts 298°
2026-04-30 19:58 49.09943 2.03578 328 ft 4 kts 330°
2026-04-30 19:58 49.09978 2.03599 327 ft 7 kts 28°
2026-04-30 19:58 49.10019 2.03632 327 ft 6 kts 28°
2026-04-30 19:59 49.10057 2.03665 328 ft 8 kts 28°
2026-04-30 19:59 49.10071 2.03649 328 ft 5 kts 208°
2026-04-30 19:59 49.10062 2.03642 328 ft 0 kts 205°